COSMOS 2499 DEB, 59319

Orbit data source: Space-Track

COSMOS 2499 DEB, 59319 is space debris in LEO originally from a launch on Fri, 23 May 2014 UTC launched from the Plesetsk Missile And Space Complex (PKMTR). Debris objects in space refer to the collection of defunct objects orbiting the Earth. Examples of debris include non-operational satellites, rocket bodies, and fragments generated from explosions, collisions, or faulty payload assembly.

Loading next visibility...
Identifier
59319, 2014-028BS
Orbit
LEO
Country
Flag of CISCIS
Related business
Manufacturer
TsNIIKhM
Mission
Spacecraft
Bus & Motor
Unknown
Mass
Unknown
Launch date (UTC)
2014-05-23 (12 years ago)
Launch vehicle
Unknown
Launch site
Plesetsk Missile And Space Complex (PKMTR)
Object type
Payload
Rocket body
Debris
Shape & HBR
Unknown shape, 0.1 m
Radar Cross Section
Small (<0.1 m²)

Expand to show TLE details & history
Last TLE update: 4 days ago

TLE from 4 days ago
0 COSMOS 2499 DEB
1 59319U 14028BS  25346.33976174  .00002529  00000-0  74490-2 0  9996
2 59319  82.5197   9.4292 0263958 354.6412   5.1884 12.96952292122418
Epoch: 2025-12-12T08:09Z
TLE epoch observation values (Epoch: 2025-12-12T08:09:15.414Z)
Latitude
-0.00005°
Longitude
165.83217°
Altitude
1,075.687 km
Speed
7.41 km/s
True Right ascension
00h 37m 43s
True Declination
0° 00' 00"
Sunlit
Object was in daylight at epoch
Visualization orbit readout
Latitude
Unknown
Longitude
Unknown
Altitude
Unknown
Speed
Unknown
Apparent Right ascension
Unknown
Apparent Declination
Unknown
Sunlit
N/A
Visualization observer readout
Local Sidereal Time
11:09:48
Azimuth
Unknown
Elevation
Unknown
Doppler factor
Unknown
Orbital elements
Apogee altitude
1,473.24 km
Perigee altitude
1,069.412 km
Semi-major axis
7,649.463 km
Eccentricity
0.0264
Inclination
82.5197°
RAAN
9.4292°
Arg. of periapsis
354.6412°
True anomaly
5.47121°
Mean anomaly
5.1884°
Eccentric anomaly
5.32886°
Mean motion
3.24412 °/min
Orbital period
110.97 mins
BSTAR
0.007449
Loading maneuver chart data...
Computing Atmospheric mass density...
Loading historical data...
Loading historical data...
Loading historical data...
Loading historical data...
Loading historical data...
Loading historical data...
Loading historical data...

Documentation

Showing up to 5 results
|